[[{"header":{"parameterUnit":"m.s-1","parameterCategory":2,"la1":30.2991,"la2":30.254,"lo1":-89.0895,"lo2":-89.0444,"dy":0.0017,"dx":0.0017,"nx":28,"ny":28,"refTime":"2024-03-29T21:00:00:Z","depth":"0","parameterNumber":2,"parameterNumberName":"U-component_of_CURRENTS"},"data":[0,0,0,0,0,0,0,0,0,0,0,0,0,0,0,0,0,0,0,0,0,0,0,0,0,0,0,0,0,0,0,0,0,0,0,0,0,0,0,0,0,0,0,0,0,0,0,0,0,0,0,0,0,0,0,0,0,0,0.3112,0.3113,0,0.3139,0.3139,0.3139,0.3105,0.3104,0.3103,0.3102,0.3076,0.3077,0.3077,0,0,0,0,0,0,0,0,0,0,0,0,0,0.3078,0.3078,0.3112,0.3113,0.3113,0.3139,0.3139,0.3139,0.3105,0.3104,0.3103,0.3102,0.3076,0.3077,0.3077,0,0,0,0,0,0,0,0,0,0,0,0,0,0.3094,0.3078,0.3112,0.3102,0.3102,0.3139,0.3139,0.3139,0.3105,0.3104,0.3103,0.3101,0.3076,0.3077,0.3077,0.3104,0,0,0.3077,0.3077,0,0,0,0,0,0,0,0,0.3093,0.3094,0.3103,0.3103,0.3103,0.312,0.3118,0.3126,0.3106,0.31,0.3102,0.3101,0.309,0.3089,0.3092,0.3103,0.3102,0.3077,0.3078,0.3078,0.3078,0,0,0,0,0,0,0,0.3092,0.3094,0.3119,0.3104,0.3104,0.3113,0.3113,0.3119,0.3098,0.31,0.3099,0.3108,0.3089,0.3092,0.3091,0.3102,0.3077,0.3078,0.3078,0.3078,0.3165,0.3167,0,0,0,0,0,0,0.3095,0.3092,0.3118,0.312,0.3099,0.3115,0.3115,0.3113,0.3099,0.3097,0.311,0.3107,0.3092,0.3091,0.309,0.3145,0.3078,0.3078,0.3078,0.3163,0.3166,0.3168,0,0,0,0,0,0,0.3094,0.3097,0.3117,0.311,0.3114,0.3117,0.3115,0.3114,0.3125,0.3107,0.3103,0.3122,0.3091,0.309,0.3109,0.3142,0.3078,0.3078,0.316,0.3164,0.3167,0.324,0,0,0,0,0,0,0.3093,0.3096,0.31,0.311,0.3115,0.3153,0.3117,0.3116,0.3134,0.3131,0.3117,0.3113,0.309,0.3109,0.3109,0.3141,0.3078,0.3157,0.3162,0.3166,0.3234,0.3245,0.3254,0,0,0,0,0,0.3092,0.3106,0.31,0.3104,0.3118,0.3155,0.3158,0.3153,0.3136,0.3154,0.3142,0.3113,0.3135,0.3111,0.311,0.3144,0.3155,0.3161,0.3165,0.323,0.3243,0.3254,0,0,0,0,0,0,0.3097,0.3105,0.3098,0.3114,0.3139,0.3151,0.3168,0.3166,0.3172,0.3165,0.3139,0.3135,0.3167,0.3152,0.3126,0.3184,0.3143,0.3148,0.3192,0.3204,0.3213,0.3217,0.3078,0,0,0,0,0,0.3101,0.3108,0.3126,0.3142,0.3155,0.3165,0.3179,0.318,0.3188,0.3189,0.3179,0.3176,0.319,0.3191,0.3198,0.3228,0.3256,0.3253,0.3262,0.3271,0.3276,0.3362,0.338,0.3184,0.3184,0.3184,0,0,0.311,0.3115,0.312,0.3144,0.3158,0.3186,0.3169,0.3202,0.3221,0.3186,0.3207,0.3212,0.3208,0.3241,0.3254,0.3229,0.3346,0.3277,0.3284,0.3284,0.3369,0.3388,0.3405,0.3187,0.3187,0.3186,0,0,0.3133,0.3136,0.315,0.3174,0.3204,0.3214,0.3229,0.325,0.3256,0.3284,0.327,0.3297,0.3303,0.3315,0.3319,0.3391,0.3399,0.3397,0.3443,0.3527,0.3543,0.3558,0.3639,0.3661,0.3396,0.3397,0.3397,0,0.314,0.3154,0.3166,0.3191,0.3211,0.3229,0.3257,0.3278,0.3302,0.3321,0.3297,0.335,0.3339,0.3398,0.3416,0.3413,0.3464,0.3394,0.354,0.3555,0.3569,0.3648,0.3671,0.3401,0.34,0.34,0.3399,0,0.3175,0.3188,0.3206,0.3232,0.3263,0.3294,0.3325,0.3359,0.3365,0.3382,0.3442,0.3444,0.3478,0.3483,0.3463,0.3564,0.3571,0.3547,0.3508,0.3593,0.3671,0.3694,0.3407,0.3405,0.3404,0.3403,0,0,0.3166,0.3216,0.3218,0.3229,0.3283,0.3305,0.3364,0.3417,0.3457,0.3486,0.3546,0.3572,0.3588,0.3596,0.3597,0.3653,0.3792,0.3642,0.3645,0.372,0.3995,0.3944,0.3964,0.3802,0.3806,0.3809,0.4017,0,0.318,0.3216,0.3248,0.3288,0.3306,0.3355,0.3403,0.3458,0.3504,0.357,0.3607,0.3661,0.3629,0.3658,0.3717,0.3778,0.3852,0.3738,0.3903,0.3908,0.385,0.3988,0.3793,0.3957,0.4039,0.4042,0.4045,0,0.3188,0.3208,0.3246,0.3295,0.331,0.3346,0.343,0.3481,0.3591,0.363,0.3713,0.3754,0.3858,0.3806,0.3978,0.3915,0.3965,0.4,0.4008,0.3947,0.3899,0.3881,0.3994,0.3873,0.4079,0.4077,0.4074,0,0.3145,0.3198,0.322,0.3239,0.3311,0.3346,0.3392,0.3496,0.3565,0.3688,0.3766,0.3877,0.3962,0.4048,0.4132,0.4077,0.4317,0.4249,0.4255,0.4253,0.4109,0.4087,0.4115,0.4376,0.4376,0.4375,0.4375,0,0.3131,0.3144,0.3198,0.321,0.3257,0.3313,0.3395,0.3464,0.3594,0.3695,0.3798,0.3918,0.403,0.4176,0.4212,0.433,0.44,0.4303,0.4317,0.413,0.4108,0.401,0.3954,0.4383,0.4381,0.438,0.4378,0,0.3087,0.3118,0.3147,0.3213,0.3238,0.3273,0.3402,0.3463,0.3593,0.3743,0.3798,0.4005,0.4192,0.4304,0.4467,0.4447,0.4416,0.4555,0.4329,0.4311,0.4145,0.4099,0.4033,0.3919,0.4594,0.4594,0.4594,0,0.3068,0.3077,0.3143,0.3169,0.3202,0.327,0.3323,0.3447,0.3529,0.3795,0.3865,0.4112,0.4251,0.4493,0.4518,0.4611,0.4457,0.4462,0.4297,0.4147,0.4109,0.3941,0.3837,0.4154,0.4151,0.4148,0.4145,0,0.3048,0.3073,0.3108,0.3154,0.3199,0.326,0.3345,0.3406,0.357,0.3709,0.3912,0.4055,0.4298,0.432,0.4446,0.4461,0.4222,0.4405,0.4312,0.3831,0.359,0.3481,0.4013,0.412,0.4123,0.4124,0.4126,0.4127,0.3044,0.3061,0.3107,0.315,0.3199,0.3234,0.3246,0.3349,0.3467,0.3627,0.3837,0.3972,0.4087,0.4236,0.4232,0.4083,0.4085,0.3927,0.3913,0.3779,0.3564,0.4047,0.4119,0.4121,0.4123,0.4125,0.4127,0,0.3028,0.3057,0.3098,0.314,0.3163,0.32,0.3249,0.3233,0.3306,0.3489,0.3638,0.3732,0.3746,0.3796,0.3738,0.3603,0.3414,0.3501,0.3205,0.3149,0.3643,0.3515,0.3381,0.3381,0.3381,0.3381,0.3381,0.3382,0.3027,0.3047,0.3064,0.3094,0.3116,0.3079,0.307,0.3057,0.3123,0.3169,0.3218,0.3335,0.3457,0.3462,0.3305,0.3224,0.2975,0.2838,0.2868,0.3196,0.3232,0.3266,0.3132,0.2921,0.292,0.2199,0.2194,0.219]},{"header":{"parameterUnit":"m.s-1","parameterCategory":2,"la1":30.2991,"la2":30.254,"lo1":-89.0895,"lo2":-89.0444,"dy":0.0017,"dx":0.0017,"nx":28,"ny":28,"refTime":"2024-03-29T21:00:00:Z","depth":"0","parameterNumber":3,"parameterNumberName":"V-component_of_CURRENTS"},"data":[0,0,0,0,0,0,0,0,0,0,0,0,0,0,0,0,0,0,0,0,0,0,0,0,0,0,0,0,0,0,0,0,0,0,0,0,0,0,0,0,0,0,0,0,0,0,0,0,0,0,0,0,0,0,0,0,0,0,0.026,0.0259,0,0.02,0.0199,0.0198,0.015,0.0149,0.0149,0.0149,0.0049,0.0047,0.0045,0,0,0,0,0,0,0,0,0,0,0,0,0,0.0278,0.0278,0.026,0.0259,0.0259,0.02,0.0199,0.0198,0.015,0.0149,0.0149,0.0149,0.005,0.0047,0.0044,0,0,0,0,0,0,0,0,0,0,0,0,0,0.0247,0.0278,0.026,0.0229,0.0226,0.0201,0.0199,0.0198,0.015,0.0149,0.0149,0.0148,0.0051,0.0047,0.0044,0.0032,0,0,0.0033,0.0032,0,0,0,0,0,0,0,0,0.0249,0.0247,0.0234,0.0231,0.0227,0.0184,0.0169,0.0141,0.015,0.0176,0.0149,0.0148,0.0092,0.0085,0.0073,0.0027,0.0023,0.0033,0.0031,0.0029,0.0028,0,0,0,0,0,0,0,0.0252,0.0249,0.0234,0.0233,0.0229,0.02,0.0195,0.0163,0.0135,0.0174,0.0171,0.0168,0.009,0.0076,0.007,0.0021,0.0033,0.003,0.0028,0.0026,-0.0023,-0.0022,0,0,0,0,0,0,0.0267,0.0251,0.0236,0.0232,0.024,0.02,0.0195,0.0196,0.0136,0.0128,0.0168,0.0166,0.0082,0.0074,0.0066,0.0075,0.0029,0.0026,0.0024,-0.0023,-0.0022,-0.0022,0,0,0,0,0,0,0.0267,0.0266,0.0238,0.0242,0.0236,0.0201,0.0203,0.0196,0.0187,0.0133,0.0123,0.0168,0.0082,0.0071,0.0054,0.0069,0.0024,0.0021,-0.0024,-0.0023,-0.0022,0.0074,0,0,0,0,0,0,0.0268,0.0267,0.0271,0.0243,0.0237,0.0238,0.0203,0.0195,0.0186,0.0182,0.0129,0.0119,0.0081,0.0059,0.005,0.0064,0.0018,-0.0025,-0.0024,-0.0022,0.007,0.0079,0.0086,0,0,0,0,0,0.0269,0.0286,0.0272,0.027,0.0245,0.0239,0.0234,0.0205,0.0187,0.0192,0.0159,0.0121,0.0062,0.0057,0.0046,0.0059,-0.0026,-0.0024,-0.0023,0.0067,0.0077,0.0086,0,0,0,0,0,0,0.0297,0.0281,0.0266,0.0276,0.0264,0.0232,0.0233,0.0213,0.019,0.0185,0.0132,0.012,0.0107,0.0073,0.0069,0.005,0.0011,0.0011,0.0083,0.0092,0.01,0.0123,0.0015,0,0,0,0,0,0.0306,0.0312,0.0292,0.0299,0.0297,0.0265,0.0258,0.0242,0.0218,0.0207,0.0171,0.0133,0.0105,0.0092,0.0058,0.0052,0.0028,0.0052,0.006,0.0067,0.0079,0.006,0.0067,-0.0015,-0.0016,-0.0016,0,0,0.0319,0.031,0.0313,0.0305,0.029,0.0302,0.026,0.0259,0.0268,0.02,0.0198,0.0156,0.0108,0.01,0.0091,0.0076,0.008,0.007,0.0076,0.0084,0.0063,0.0071,0.0078,-0.0014,-0.0014,-0.0015,0,0,0.0355,0.0341,0.0361,0.0355,0.0344,0.0331,0.0337,0.0313,0.03,0.0294,0.0247,0.0224,0.0179,0.0154,0.0134,0.0166,0.0119,0.0151,0.0214,0.0196,0.0203,0.0209,0.0201,0.0206,0.016,0.016,0.016,0,0.0368,0.039,0.0366,0.0383,0.0387,0.0352,0.0378,0.0365,0.0338,0.0338,0.0307,0.0254,0.0207,0.0206,0.0213,0.0185,0.017,0.0183,0.0208,0.0213,0.0217,0.0208,0.0211,0.0165,0.0164,0.0164,0.0163,0,0.0419,0.0434,0.0447,0.0459,0.0462,0.0477,0.0462,0.0465,0.0443,0.0425,0.0413,0.0353,0.0328,0.0304,0.0265,0.0276,0.0255,0.0218,0.0188,0.0232,0.0219,0.0221,0.0172,0.017,0.0169,0.0167,0,0,0.0454,0.0478,0.0483,0.0505,0.0502,0.0519,0.0537,0.0549,0.0578,0.0531,0.0562,0.0492,0.0461,0.0436,0.0385,0.0361,0.0372,0.031,0.0307,0.0311,0.0345,0.0326,0.0326,0.034,0.034,0.0341,0.0328,0,0.0499,0.0556,0.0552,0.0611,0.064,0.0621,0.065,0.0654,0.0645,0.0668,0.0603,0.0608,0.0513,0.0515,0.0473,0.0406,0.0379,0.0379,0.0294,0.0292,0.0277,0.0329,0.0316,0.0303,0.033,0.033,0.033,0,0.055,0.0583,0.0649,0.0698,0.0711,0.0745,0.0794,0.0815,0.0826,0.0819,0.0802,0.0758,0.073,0.0641,0.0543,0.0549,0.0456,0.0387,0.0385,0.0336,0.0277,0.026,0.0305,0.0113,0.0333,0.0332,0.0332,0,0.0597,0.0652,0.0713,0.0726,0.0775,0.081,0.0842,0.0865,0.0915,0.0933,0.0982,0.0907,0.0918,0.0781,0.0639,0.0596,0.0534,0.0455,0.0347,0.0345,0.0302,0.0295,0.0158,0.0379,0.0379,0.0379,0.0379,0,0.065,0.0697,0.0747,0.0781,0.0876,0.088,0.0982,0.0999,0.1058,0.1161,0.1077,0.1152,0.0955,0.0895,0.0712,0.0562,0.0591,0.0377,0.0346,0.0335,0.0332,0.0135,0.0043,0.0378,0.0378,0.0378,0.0379,0,0.0698,0.0722,0.0801,0.0869,0.0903,0.0976,0.1094,0.1169,0.1212,0.1351,0.1376,0.136,0.1291,0.1084,0.0895,0.0696,0.0422,0.0454,0.0464,0.0434,0.0123,0.0039,-0.0105,-0.0174,0.0326,0.0325,0.0325,0,0.0733,0.0778,0.0877,0.0944,0.0985,0.1093,0.1178,0.1243,0.1344,0.1498,0.1586,0.1573,0.1601,0.1315,0.0958,0.0652,0.0453,0.0414,0.0309,0.0123,0.0006,-0.0063,-0.0116,0.0292,0.0291,0.0291,0.029,0,0.0809,0.084,0.0913,0.1039,0.1142,0.1268,0.1401,0.1509,0.1624,0.1765,0.1942,0.1985,0.173,0.1422,0.0986,0.0753,0.0287,0.0393,0.0195,-0.0027,-0.0104,-0.0189,0.0287,0.0286,0.0286,0.0286,0.0287,0.0287,0.0875,0.094,0.1033,0.1156,0.1281,0.1441,0.1562,0.1727,0.1933,0.2165,0.2189,0.2286,0.1812,0.1224,0.0898,0.025,0.0263,0.0017,-0.0065,-0.0115,-0.02,0.0277,0.024,0.0241,0.0241,0.0241,0.0241,0,0.0949,0.1025,0.1145,0.1302,0.1446,0.1492,0.1712,0.1852,0.2116,0.2324,0.2482,0.2281,0.1725,0.1133,0.026,-0.0161,-0.03,-0.0381,-0.0503,-0.0533,-0.0119,-0.0142,-0.0255,-0.0255,-0.0255,-0.0255,-0.0254,-0.0254,0.1,0.1112,0.1168,0.1414,0.1533,0.1733,0.1861,0.2084,0.2261,0.2497,0.254,0.2532,0.2025,0.0587,-0.0394,-0.0601,-0.0852,-0.0914,-0.1023,-0.0782,-0.0753,-0.0725,-0.0771,-0.1013,-0.1014,-0.1409,-0.1413,-0.1416]}],[{"header":{"parameterUnit":"m.s-1","parameterCategory":2,"la1":30.2991,"la2":30.254,"lo1":-89.0895,"lo2":-89.0444,"dy":0.0017,"dx":0.0017,"nx":28,"ny":28,"refTime":"2024-03-29T21:00:00:Z","depth":"2","parameterNumber":2,"parameterNumberName":"U-component_of_CURRENTS"},"data":[0,0,0,0,0,0,0,0,0,0,0,0,0,0,0,0,0,0,0,0,0,0,0,0,0,0,0,0,0,0,0,0,0,0,0,0,0,0,0,0,0,0,0,0,0,0,0,0,0,0,0,0,0,0,0,0,0,0,0.2586,0.2586,0,0.2615,0.2615,0.2615,0.2616,0.2616,0.2616,0.2616,0.2627,0.2627,0.2627,0,0,0,0,0,0,0,0,0,0,0,0,0,0.2534,0.2535,0.2586,0.2586,0.2587,0.2615,0.2615,0.2615,0.2616,0.2616,0.2616,0.2616,0.2626,0.2627,0.2627,0,0,0,0,0,0,0,0,0,0,0,0,0,0.2557,0.2535,0.2585,0.2592,0.2594,0.2615,0.2615,0.2615,0.2617,0.2616,0.2616,0.2616,0.2626,0.2627,0.2627,0.2635,0,0,0.2629,0.263,0,0,0,0,0,0,0,0,0.2555,0.2558,0.2591,0.2592,0.2593,0.2614,0.2601,0.2622,0.2617,0.2605,0.2616,0.2616,0.2622,0.2623,0.2626,0.2636,0.2636,0.2629,0.263,0.263,0.263,0,0,0,0,0,0,0,0.2554,0.2557,0.2595,0.2592,0.2593,0.2596,0.2598,0.2605,0.2612,0.2606,0.2607,0.2614,0.2622,0.2625,0.2626,0.2636,0.2629,0.263,0.263,0.263,0.2714,0.2716,0,0,0,0,0,0,0.2555,0.2556,0.2594,0.2596,0.2576,0.2597,0.26,0.2606,0.2613,0.2614,0.2614,0.2614,0.2625,0.2626,0.2627,0.2685,0.263,0.2631,0.2631,0.2712,0.2714,0.2716,0,0,0,0,0,0,0.2554,0.2558,0.2593,0.2578,0.2583,0.2598,0.2605,0.2606,0.2623,0.262,0.262,0.2631,0.2624,0.2626,0.2652,0.2683,0.2631,0.2631,0.271,0.2713,0.2715,0.277,0,0,0,0,0,0,0.2552,0.2558,0.2567,0.2579,0.2584,0.2618,0.2605,0.2607,0.2628,0.2628,0.2634,0.2634,0.2624,0.2652,0.2653,0.2683,0.2632,0.2708,0.2711,0.2715,0.2766,0.2774,0.2781,0,0,0,0,0,0.255,0.256,0.2567,0.2572,0.2595,0.262,0.2623,0.2631,0.2629,0.2643,0.2651,0.2634,0.2675,0.2654,0.2655,0.2686,0.2706,0.271,0.2714,0.2762,0.2773,0.2781,0,0,0,0,0,0,0.2541,0.2562,0.257,0.2585,0.2609,0.2621,0.2634,0.2642,0.2658,0.2661,0.2653,0.2655,0.2694,0.2684,0.2661,0.2723,0.269,0.2695,0.2726,0.2736,0.2743,0.2746,0.2632,0,0,0,0,0,0.2545,0.2558,0.2582,0.2597,0.261,0.2626,0.2639,0.2649,0.2664,0.2671,0.2678,0.269,0.2711,0.2718,0.2733,0.276,0.2776,0.2784,0.2792,0.2798,0.2803,0.2873,0.2887,0.273,0.273,0.273,0,0,0.2542,0.2559,0.2565,0.2597,0.2612,0.2635,0.2633,0.266,0.2682,0.267,0.2702,0.272,0.2727,0.2763,0.278,0.2758,0.2852,0.2803,0.2809,0.281,0.2879,0.2894,0.2907,0.2733,0.2733,0.2732,0,0,0.2548,0.2564,0.258,0.2604,0.264,0.2651,0.2665,0.2693,0.2709,0.2743,0.2749,0.2787,0.2806,0.2824,0.2833,0.2894,0.2897,0.2903,0.2937,0.3004,0.3018,0.303,0.307,0.3085,0.29,0.29,0.29,0,0.2546,0.2568,0.2589,0.2617,0.2639,0.2661,0.2688,0.2707,0.2743,0.277,0.2761,0.2834,0.2835,0.2892,0.2911,0.2911,0.2944,0.2897,0.3015,0.3027,0.3038,0.3076,0.3092,0.2903,0.2903,0.2902,0.2902,0,0.257,0.2588,0.2602,0.2641,0.2671,0.2696,0.2732,0.2769,0.279,0.2814,0.2885,0.2901,0.2948,0.2957,0.2947,0.3034,0.303,0.3022,0.2988,0.3057,0.3093,0.3109,0.2908,0.2906,0.2905,0.2905,0,0,0.2547,0.2606,0.2606,0.2629,0.2686,0.2708,0.2762,0.2816,0.2857,0.2901,0.2966,0.3004,0.3031,0.3044,0.3055,0.31,0.32,0.3096,0.3098,0.3131,0.3346,0.3286,0.3296,0.3223,0.3226,0.3229,0.3338,0,0.2554,0.2596,0.2633,0.2672,0.2694,0.2749,0.2793,0.2852,0.2901,0.2971,0.3018,0.3079,0.3058,0.3097,0.3145,0.3194,0.3245,0.3171,0.3278,0.3281,0.3216,0.3314,0.3036,0.3106,0.3353,0.3356,0.3358,0,0.2558,0.2586,0.2628,0.2686,0.2704,0.274,0.2829,0.2877,0.2982,0.3026,0.311,0.3155,0.3243,0.3214,0.3335,0.3295,0.3329,0.3353,0.3358,0.3293,0.325,0.3078,0.3124,0.3383,0.3381,0.3379,0.3378,0,0.2519,0.2575,0.2606,0.2628,0.2705,0.2749,0.2799,0.2898,0.2961,0.3082,0.3157,0.3247,0.333,0.3386,0.3455,0.3408,0.3589,0.3527,0.3502,0.3497,0.3275,0.3245,0.3622,0.3622,0.3622,0.3621,0.3621,0,0.2505,0.2521,0.2589,0.2607,0.2658,0.2727,0.2809,0.2875,0.2999,0.309,0.319,0.3285,0.3387,0.3502,0.3514,0.3577,0.3647,0.3532,0.3536,0.3285,0.3257,0.3501,0.3485,0.3625,0.3625,0.3624,0.3623,0,0.2457,0.2498,0.2534,0.2612,0.2643,0.2683,0.2816,0.2872,0.3001,0.3138,0.3192,0.3361,0.3492,0.3588,0.3702,0.3667,0.3715,0.3721,0.3412,0.3377,0.3549,0.3535,0.367,0.3669,0.3669,0.3668,0.3668,0,0.2436,0.2453,0.253,0.2555,0.2594,0.2673,0.2727,0.2856,0.2928,0.3169,0.3225,0.3426,0.3521,0.3676,0.3669,0.3703,0.3757,0.3451,0.3296,0.3571,0.3562,0.3549,0.3537,0.3019,0.3013,0.3009,0.3005,0,0.2401,0.2432,0.2467,0.2516,0.2566,0.263,0.2723,0.278,0.295,0.306,0.3222,0.3326,0.3502,0.3412,0.3487,0.3452,0.3412,0.3354,0.3763,0.3052,0.2967,0.2954,0.2962,0.2963,0.2967,0.297,0.2972,0.2974,0.2377,0.239,0.2435,0.2465,0.2524,0.2566,0.2591,0.2692,0.2784,0.2908,0.3076,0.3129,0.3191,0.314,0.3072,0.3025,0.3232,0.3053,0.3064,0.308,0.2988,0.2907,0.2872,0.2876,0.2879,0.2881,0.2884,0,0.2339,0.2355,0.238,0.2403,0.2418,0.2474,0.2564,0.2548,0.2597,0.2714,0.2803,0.2614,0.2579,0.2653,0.252,0.2522,0.2457,0.2408,0.2283,0.233,0.237,0.2235,0.1923,0.1919,0.1916,0.1913,0,0,0.2328,0.2314,0.2304,0.2278,0.2298,0.2292,0.232,0.2297,0.2352,0.2298,0.2296,0.2473,0.2587,0.2217,0.2174,0.2025,0.2152,0.1948,0.2728,0.2629,0.2664,0.2764,0.2613,0,0,0,0,0]},{"header":{"parameterUnit":"m.s-1","parameterCategory":2,"la1":30.2991,"la2":30.254,"lo1":-89.0895,"lo2":-89.0444,"dy":0.0017,"dx":0.0017,"nx":28,"ny":28,"refTime":"2024-03-29T21:00:00:Z","depth":"2","parameterNumber":3,"parameterNumberName":"V-component_of_CURRENTS"},"data":[0,0,0,0,0,0,0,0,0,0,0,0,0,0,0,0,0,0,0,0,0,0,0,0,0,0,0,0,0,0,0,0,0,0,0,0,0,0,0,0,0,0,0,0,0,0,0,0,0,0,0,0,0,0,0,0,0,0,0.0037,0.0037,0,-0.0009,-0.001,-0.001,-0.0041,-0.0041,-0.0041,-0.0041,-0.0123,-0.0125,-0.0127,0,0,0,0,0,0,0,0,0,0,0,0,0,0.0047,0.0048,0.0037,0.0037,0.0036,-0.0009,-0.001,-0.001,-0.0041,-0.0041,-0.0041,-0.0041,-0.0122,-0.0125,-0.0127,0,0,0,0,0,0,0,0,0,0,0,0,0,0.0026,0.0048,0.0037,0.0016,0.0014,-0.0009,-0.001,-0.001,-0.0041,-0.0041,-0.0041,-0.0042,-0.0121,-0.0124,-0.0127,-0.0142,0,0,-0.0137,-0.0138,0,0,0,0,0,0,0,0,0.0027,0.0025,0.0019,0.0017,0.0015,-0.0019,-0.0036,-0.0056,-0.0041,-0.0021,-0.0041,-0.0042,-0.0091,-0.0096,-0.0105,-0.0146,-0.0149,-0.0137,-0.0139,-0.014,-0.0141,0,0,0,0,0,0,0,0.0029,0.0027,0.0018,0.0019,0.0016,-0.0009,-0.0012,-0.004,-0.0055,-0.0023,-0.0025,-0.0029,-0.0092,-0.0102,-0.0107,-0.015,-0.0137,-0.014,-0.0141,-0.0143,-0.0193,-0.0192,0,0,0,0,0,0,0.0039,0.0029,0.0019,0.0017,0.0021,-0.0008,-0.0012,-0.0008,-0.0054,-0.0061,-0.0029,-0.003,-0.0097,-0.0104,-0.011,-0.0107,-0.014,-0.0143,-0.0145,-0.0193,-0.0192,-0.0192,0,0,0,0,0,0,0.0039,0.0039,0.0021,0.0022,0.0018,-0.0008,-0.0004,-0.0009,-0.0015,-0.0058,-0.0066,-0.0028,-0.0097,-0.0106,-0.0122,-0.0112,-0.0144,-0.0147,-0.0194,-0.0193,-0.0192,-0.0116,0,0,0,0,0,0,0.004,0.0039,0.0044,0.0023,0.0018,0.0019,-0.0004,-0.001,-0.0017,-0.0019,-0.0061,-0.0069,-0.0098,-0.0117,-0.0125,-0.0116,-0.015,-0.0194,-0.0193,-0.0192,-0.012,-0.0113,-0.0108,0,0,0,0,0,0.0041,0.0054,0.0045,0.0044,0.0027,0.002,0.0016,-0.0005,-0.0016,-0.0012,-0.0037,-0.0067,-0.0117,-0.0119,-0.0129,-0.0121,-0.0195,-0.0194,-0.0192,-0.0122,-0.0114,-0.0108,0,0,0,0,0,0,0.0059,0.0051,0.0041,0.0051,0.004,0.0015,0.0016,0.0002,-0.0016,-0.0018,-0.006,-0.0069,-0.0082,-0.0111,-0.0112,-0.0132,-0.0162,-0.0162,-0.0105,-0.0098,-0.0092,-0.0073,-0.0152,0,0,0,0,0,0.0067,0.0075,0.006,0.0066,0.0064,0.0041,0.0035,0.0023,0.0005,-0.0003,-0.0032,-0.0062,-0.0086,-0.0097,-0.0125,-0.0135,-0.0164,-0.0136,-0.013,-0.0125,-0.0116,-0.0149,-0.0144,-0.0188,-0.0188,-0.0188,0,0,0.0073,0.0071,0.0074,0.0071,0.0059,0.0069,0.0037,0.0036,0.0043,-0.001,-0.001,-0.0044,-0.0084,-0.0093,-0.0102,-0.0114,-0.0128,-0.0124,-0.0119,-0.0113,-0.0147,-0.0143,-0.0139,-0.0187,-0.0188,-0.0188,0,0,0.0099,0.0093,0.011,0.0107,0.01,0.009,0.0095,0.0076,0.0068,0.0062,0.0027,0.0004,-0.0032,-0.0055,-0.0073,-0.0052,-0.0098,-0.0063,-0.0016,-0.0047,-0.0043,-0.004,-0.007,-0.0071,-0.0057,-0.0057,-0.0057,0,0.0108,0.0129,0.0113,0.0131,0.0135,0.0106,0.0129,0.0117,0.0096,0.0095,0.0073,0.0027,-0.0013,-0.002,-0.0014,-0.0038,-0.0062,-0.0038,-0.0038,-0.0036,-0.0035,-0.0066,-0.0067,-0.0054,-0.0054,-0.0054,-0.0055,0,0.0148,0.0163,0.0174,0.019,0.0194,0.0207,0.0195,0.0194,0.0178,0.0164,0.0151,0.01,0.0076,0.0056,0.0026,0.0021,-0.0002,-0.0028,-0.0053,-0.0025,-0.006,-0.0063,-0.0048,-0.0049,-0.0051,-0.0052,0,0,0.0176,0.02,0.0204,0.0226,0.0228,0.0241,0.0253,0.0261,0.0278,0.0242,0.026,0.0205,0.0176,0.0154,0.0111,0.0081,0.0063,0.0038,0.0035,0.0015,-0.0002,-0.0029,-0.0035,0.0038,0.0038,0.0038,-0.003,0,0.0213,0.0264,0.0264,0.0313,0.0339,0.0323,0.0345,0.0345,0.0332,0.034,0.0286,0.0284,0.0215,0.0211,0.0168,0.0093,0.0058,0.0083,-0.0031,-0.0035,-0.0057,-0.0039,-0.0003,-0.0061,-0.0033,-0.0033,-0.0034,0,0.0256,0.0287,0.0344,0.0387,0.0398,0.0425,0.0458,0.0473,0.0467,0.0457,0.0434,0.0393,0.0352,0.029,0.0173,0.0194,0.0104,0.0037,0.0033,-0.002,-0.0067,-0.0086,-0.0068,-0.0039,-0.0039,-0.0039,-0.0038,0,0.0296,0.0345,0.0397,0.041,0.0451,0.0479,0.0504,0.0512,0.0545,0.054,0.0567,0.049,0.048,0.0354,0.0213,0.0194,0.0084,0.0037,-0.0074,-0.0078,-0.0084,-0.0087,-0.0048,-0.0048,-0.0048,-0.0048,-0.0048,0,0.034,0.038,0.0425,0.0455,0.053,0.0538,0.0614,0.0618,0.0652,0.072,0.0641,0.067,0.0497,0.0414,0.0255,0.0092,0.0112,-0.006,-0.0094,-0.0057,-0.0057,-0.007,-0.0071,-0.0051,-0.005,-0.0049,-0.0049,0,0.0373,0.0397,0.0465,0.0525,0.0552,0.061,0.0701,0.0754,0.0775,0.0864,0.0877,0.0814,0.0705,0.0521,0.0325,0.0167,-0.0002,-0.0067,-0.0011,-0.0037,-0.0158,-0.0155,-0.0206,-0.0208,-0.0209,-0.021,-0.0211,0,0.0394,0.0432,0.0521,0.0574,0.0607,0.0696,0.0763,0.0811,0.0881,0.0961,0.1013,0.0942,0.0903,0.0598,0.0317,0.0042,0.0002,-0.0116,-0.0159,-0.0145,-0.0173,-0.0168,-0.0163,-0.0138,-0.0138,-0.0138,-0.0139,0,0.0436,0.0467,0.0527,0.0632,0.0716,0.0822,0.0927,0.1009,0.1093,0.117,0.1253,0.123,0.0958,0.0684,0.0301,0.0109,-0.0075,-0.0131,-0.0119,-0.0104,-0.0086,-0.0112,-0.0108,-0.014,-0.014,-0.014,-0.014,-0.014,0.047,0.0521,0.06,0.0697,0.0799,0.0939,0.1053,0.1178,0.1318,0.145,0.1411,0.1386,0.1069,0.0577,0.0252,-0.0085,-0.0083,-0.0213,-0.021,-0.0207,-0.0187,-0.0173,-0.0239,-0.024,-0.024,-0.024,-0.0241,0,0.0515,0.057,0.0659,0.0786,0.0901,0.0949,0.1153,0.128,0.1473,0.1552,0.1608,0.1309,0.0993,0.0638,0.0145,-0.0169,-0.0188,-0.0271,-0.022,-0.0216,-0.0213,-0.0192,-0.0247,-0.0247,-0.0248,-0.0249,0,0,0.0545,0.0626,0.0665,0.084,0.0937,0.1114,0.1248,0.1454,0.1575,0.165,0.1626,0.1534,0.1108,0.0745,0.0328,0.0051,-0.0013,-0.0011,0.0028,0.0142,0.0148,-0.0147,-0.0106,0,0,0,0,0]}],[{"header":{"parameterUnit":"m.s-1","parameterCategory":2,"la1":30.2991,"la2":30.254,"lo1":-89.0895,"lo2":-89.0444,"dy":0.0017,"dx":0.0017,"nx":28,"ny":28,"refTime":"2024-03-29T21:00:00:Z","depth":"4","parameterNumber":2,"parameterNumberName":"U-component_of_CURRENTS"},"data":[0,0,0,0,0,0,0,0,0,0,0,0,0,0,0,0,0,0,0,0,0,0,0,0,0,0,0,0,0,0,0,0,0,0,0,0,0,0,0,0,0,0,0,0,0,0,0,0,0,0,0,0,0,0,0,0,0,0,0.1636,0.1636,0,0.1699,0.17,0.17,0.1758,0.1759,0.176,0.176,0.184,0.1841,0.1842,0,0,0,0,0,0,0,0,0,0,0,0,0,0.1553,0.1554,0.1636,0.1637,0.1638,0.1699,0.17,0.1701,0.1758,0.1759,0.176,0.1761,0.1839,0.1841,0.1843,0,0,0,0,0,0,0,0,0,0,0,0,0,0.1598,0.1555,0.1635,0.1675,0.1679,0.1699,0.17,0.1701,0.1757,0.1759,0.176,0.1761,0.1839,0.1841,0.1843,0.1829,0,0,0.1849,0.185,0,0,0,0,0,0,0,0,0.1596,0.1601,0.1668,0.1672,0.1677,0.1724,0.17,0.1745,0.1757,0.1726,0.176,0.1762,0.1803,0.1808,0.1814,0.1833,0.1836,0.1849,0.185,0.1851,0.1852,0,0,0,0,0,0,0,0.1593,0.1599,0.1659,0.1669,0.1675,0.1686,0.1694,0.1709,0.1755,0.1728,0.1733,0.1743,0.1805,0.1812,0.1816,0.1837,0.1849,0.1851,0.1852,0.1853,0.1968,0.197,0,0,0,0,0,0,0.1588,0.1596,0.1657,0.1661,0.1641,0.1687,0.1695,0.1706,0.1755,0.1764,0.1742,0.1746,0.1808,0.1814,0.1819,0.1907,0.1851,0.1853,0.1854,0.1966,0.1969,0.1971,0,0,0,0,0,0,0.1586,0.1593,0.1654,0.1631,0.164,0.1687,0.1698,0.1706,0.175,0.1765,0.1774,0.1782,0.1809,0.1817,0.187,0.1906,0.1854,0.1856,0.1964,0.1967,0.197,0.2016,0,0,0,0,0,0,0.1583,0.1591,0.1613,0.1631,0.1641,0.1687,0.1697,0.1707,0.1753,0.1759,0.1801,0.1808,0.1811,0.1867,0.1872,0.1908,0.1857,0.1962,0.1965,0.1969,0.2012,0.202,0.2027,0,0,0,0,0,0.158,0.1597,0.1614,0.1623,0.1665,0.1688,0.1695,0.1731,0.1754,0.1775,0.1812,0.1809,0.1893,0.187,0.1875,0.1913,0.196,0.1964,0.1968,0.2009,0.2019,0.2027,0,0,0,0,0,0,0.1571,0.1605,0.1624,0.1651,0.168,0.17,0.1727,0.175,0.1794,0.1814,0.1828,0.1837,0.19,0.19,0.1875,0.1959,0.1928,0.1933,0.1957,0.1966,0.1974,0.197,0.1859,0,0,0,0,0,0.1578,0.1605,0.1633,0.1659,0.1677,0.1709,0.1731,0.1756,0.1789,0.1812,0.1843,0.188,0.1914,0.1937,0.1964,0.2003,0.2012,0.2034,0.2041,0.2047,0.205,0.2101,0.2113,0.1985,0.1985,0.1985,0,0,0.1581,0.1606,0.1621,0.1661,0.1688,0.1714,0.1727,0.1769,0.1801,0.1812,0.1878,0.1909,0.1932,0.1984,0.2011,0.1993,0.209,0.2053,0.2058,0.2057,0.2107,0.2119,0.213,0.1988,0.1987,0.1987,0,0,0.1588,0.1625,0.1647,0.1675,0.1724,0.1742,0.1762,0.1805,0.184,0.1895,0.1919,0.1973,0.2022,0.2046,0.2062,0.2126,0.213,0.2145,0.2176,0.2226,0.2237,0.2246,0.2273,0.2285,0.2145,0.2145,0.2145,0,0.1596,0.1627,0.1658,0.1687,0.1717,0.1758,0.1788,0.1821,0.188,0.1915,0.1928,0.2031,0.2049,0.2111,0.2136,0.2142,0.2167,0.2137,0.2235,0.2245,0.2254,0.2279,0.2291,0.2148,0.2148,0.2147,0.2147,0,0.1608,0.165,0.1668,0.1719,0.1752,0.1789,0.1833,0.1882,0.1932,0.1967,0.2057,0.2092,0.2156,0.2171,0.2172,0.225,0.2247,0.224,0.2208,0.2269,0.2292,0.2303,0.2152,0.2151,0.215,0.2149,0,0,0.1581,0.1661,0.1673,0.1707,0.1778,0.18,0.1865,0.1928,0.1982,0.2049,0.2121,0.2185,0.2225,0.2247,0.2268,0.2303,0.2382,0.2303,0.2305,0.2321,0.2491,0.2335,0.2333,0.2402,0.2405,0.2407,0.2481,0,0.1588,0.1641,0.1686,0.1746,0.1776,0.1844,0.1895,0.1962,0.203,0.2107,0.2167,0.2243,0.2248,0.2295,0.2337,0.2379,0.2416,0.2362,0.2437,0.2438,0.2286,0.2342,0.2414,0.249,0.2492,0.2494,0.2496,0,0.1582,0.1622,0.1679,0.1765,0.1787,0.1835,0.1936,0.199,0.21,0.2158,0.2252,0.2306,0.2394,0.2379,0.2488,0.2461,0.2485,0.2499,0.2503,0.2346,0.2303,0.2418,0.2517,0.2515,0.2513,0.2512,0.2511,0,0.153,0.1618,0.1666,0.1695,0.1793,0.1848,0.1909,0.2016,0.2073,0.2205,0.2272,0.2378,0.2452,0.2508,0.2562,0.2543,0.2658,0.2631,0.2509,0.2498,0.2595,0.2584,0.2697,0.2697,0.2697,0.2697,0.2696,0,0.1504,0.1547,0.1653,0.1678,0.1746,0.1828,0.1917,0.1995,0.2113,0.2182,0.2306,0.2372,0.2493,0.2573,0.2597,0.2591,0.2698,0.2519,0.251,0.2612,0.2603,0.2602,0.259,0.2699,0.2699,0.2698,0.2698,0,0.1434,0.1507,0.1566,0.1681,0.1725,0.1774,0.1913,0.1961,0.2098,0.2198,0.2248,0.2401,0.2501,0.2594,0.2684,0.2622,0.2634,0.2603,0.2712,0.2707,0.2429,0.2419,0.2463,0.2458,0.2454,0.245,0.2448,0,0.1398,0.1422,0.155,0.1584,0.1646,0.1738,0.1792,0.1937,0.1989,0.219,0.2216,0.2376,0.2462,0.2473,0.257,0.2607,0.2577,0.2559,0.2477,0.242,0.2408,0.2404,0.24,0.2441,0.244,0.2439,0.2438,0,0.1323,0.1384,0.143,0.1498,0.1568,0.163,0.1727,0.1753,0.1914,0.2068,0.2141,0.2205,0.231,0.2373,0.2428,0.2443,0.2554,0.2516,0.2523,0.2446,0.2394,0.2385,0.2386,0.2424,0.2426,0.2427,0.2428,0,0.1272,0.1279,0.1343,0.1388,0.146,0.1482,0.156,0.1628,0.1706,0.1931,0.1949,0.2127,0.228,0.229,0.2336,0.2347,0.2304,0.2215,0.2237,0.2254,0.215,0.2052,0.1972,0,0,0,0,0,0.1203,0.119,0.1221,0.126,0.1318,0.1359,0.1484,0.1564,0.1735,0.1738,0.1841,0.1931,0.2013,0.2097,0.2068,0.2231,0.2302,0.2184,0.2207,0.2345,0.2361,0.2258,0,0,0,0,0,0,0.1159,0.1179,0.1175,0.1128,0.1122,0.1176,0.1245,0.137,0.1385,0.1579,0.1638,0.1796,0.1906,0.2007,0.2022,0.2049,0.202,0.2299,0.2294,0.2336,0.2351,0.2364,0.2264,0,0,0,0,0]},{"header":{"parameterUnit":"m.s-1","parameterCategory":2,"la1":30.2991,"la2":30.254,"lo1":-89.0895,"lo2":-89.0444,"dy":0.0017,"dx":0.0017,"nx":28,"ny":28,"refTime":"2024-03-29T21:00:00:Z","depth":"4","parameterNumber":3,"parameterNumberName":"V-component_of_CURRENTS"},"data":[0,0,0,0,0,0,0,0,0,0,0,0,0,0,0,0,0,0,0,0,0,0,0,0,0,0,0,0,0,0,0,0,0,0,0,0,0,0,0,0,0,0,0,0,0,0,0,0,0,0,0,0,0,0,0,0,0,0,0.0005,0.0004,0,-0.0026,-0.0026,-0.0026,-0.0048,-0.0048,-0.0048,-0.0048,-0.0109,-0.011,-0.0112,0,0,0,0,0,0,0,0,0,0,0,0,0,0.001,0.001,0.0005,0.0004,0.0004,-0.0026,-0.0026,-0.0027,-0.0048,-0.0048,-0.0048,-0.0048,-0.0108,-0.011,-0.0112,0,0,0,0,0,0,0,0,0,0,0,0,0,-0.0004,0.001,0.0005,-0.001,-0.0012,-0.0026,-0.0026,-0.0027,-0.0048,-0.0048,-0.0048,-0.0048,-0.0108,-0.011,-0.0112,-0.0122,0,0,-0.0119,-0.012,0,0,0,0,0,0,0,0,-0.0003,-0.0004,-0.0007,-0.0009,-0.0011,-0.0033,-0.0046,-0.006,-0.0047,-0.0034,-0.0048,-0.0048,-0.0086,-0.009,-0.0095,-0.0125,-0.0127,-0.0119,-0.012,-0.0121,-0.0122,0,0,0,0,0,0,0,-0.0002,-0.0003,-0.0008,-0.0008,-0.001,-0.0027,-0.0029,-0.0049,-0.0059,-0.0035,-0.0037,-0.004,-0.0087,-0.0093,-0.0097,-0.0128,-0.0119,-0.0121,-0.0122,-0.0123,-0.0166,-0.0166,0,0,0,0,0,0,0.0005,-0.0002,-0.0007,-0.0009,-0.0007,-0.0026,-0.0029,-0.0026,-0.0058,-0.0063,-0.004,-0.0041,-0.0089,-0.0094,-0.0099,-0.0101,-0.0121,-0.0123,-0.0125,-0.0166,-0.0166,-0.0165,0,0,0,0,0,0,0.0005,0.0005,-0.0005,-0.0006,-0.0008,-0.0026,-0.0023,-0.0026,-0.003,-0.0061,-0.0067,-0.004,-0.0089,-0.0096,-0.011,-0.0104,-0.0124,-0.0127,-0.0166,-0.0166,-0.0166,-0.0112,0,0,0,0,0,0,0.0005,0.0005,0.0008,-0.0005,-0.0008,-0.0007,-0.0023,-0.0027,-0.0032,-0.0033,-0.0064,-0.0069,-0.009,-0.0106,-0.0112,-0.0107,-0.0128,-0.0166,-0.0166,-0.0166,-0.0114,-0.0109,-0.0106,0,0,0,0,0,0.0006,0.0016,0.0009,0.0008,-0.0002,-0.0007,-0.0009,-0.0023,-0.0031,-0.0029,-0.0048,-0.0068,-0.0108,-0.0107,-0.0114,-0.011,-0.0167,-0.0166,-0.0166,-0.0115,-0.011,-0.0106,0,0,0,0,0,0,0.0019,0.0014,0.0006,0.0014,0.0006,-0.001,-0.0009,-0.002,-0.0032,-0.0034,-0.0064,-0.0071,-0.0082,-0.0104,-0.0102,-0.0122,-0.0142,-0.0142,-0.0101,-0.0097,-0.0093,-0.0079,-0.013,0,0,0,0,0,0.0023,0.003,0.0019,0.0024,0.0023,0.0007,0.0003,-0.0005,-0.0018,-0.0024,-0.0045,-0.0068,-0.0086,-0.0096,-0.0116,-0.0126,-0.0153,-0.0129,-0.0125,-0.0121,-0.0115,-0.0149,-0.0148,-0.0164,-0.0164,-0.0164,0,0,0.0028,0.0027,0.0029,0.0027,0.002,0.0027,0.0004,0.0004,0.0009,-0.0029,-0.003,-0.0056,-0.0086,-0.0094,-0.0102,-0.0111,-0.0132,-0.0121,-0.0117,-0.0113,-0.0148,-0.0147,-0.0145,-0.0164,-0.0164,-0.0164,0,0,0.0046,0.0042,0.0055,0.0053,0.0049,0.0042,0.0045,0.0032,0.0026,0.0021,-0.0005,-0.0025,-0.0051,-0.0071,-0.0085,-0.0073,-0.011,-0.0081,-0.005,-0.0082,-0.0081,-0.008,-0.0113,-0.0116,-0.0078,-0.0078,-0.0078,0,0.0052,0.0068,0.0057,0.007,0.0074,0.0054,0.007,0.0062,0.0046,0.0044,0.0028,-0.001,-0.004,-0.0049,-0.0047,-0.0064,-0.0088,-0.0063,-0.0076,-0.0076,-0.0077,-0.0111,-0.0114,-0.0076,-0.0076,-0.0076,-0.0076,0,0.0081,0.0093,0.0101,0.0114,0.0117,0.0127,0.0118,0.0117,0.0105,0.0094,0.0081,0.004,0.0019,0.0003,-0.0019,-0.0032,-0.005,-0.0067,-0.0086,-0.0071,-0.0109,-0.0113,-0.0072,-0.0073,-0.0073,-0.0074,0,0,0.0099,0.0119,0.0122,0.0139,0.0142,0.0153,0.0161,0.0165,0.0176,0.0148,0.0154,0.0113,0.0089,0.0072,0.0037,0.0006,-0.0023,-0.0026,-0.0029,-0.0054,-0.0094,-0.0106,-0.0113,-0.0041,-0.0041,-0.0041,-0.0119,0,0.0125,0.0163,0.0164,0.0203,0.0223,0.0212,0.0227,0.0226,0.0215,0.0214,0.0169,0.0161,0.0117,0.0108,0.0071,0.0002,-0.0032,-0.0,-0.0108,-0.0111,-0.012,-0.0118,-0.0043,-0.0123,-0.0124,-0.0125,-0.0126,0,0.0154,0.0178,0.022,0.0256,0.0264,0.0285,0.0307,0.0318,0.0306,0.0296,0.0274,0.0237,0.0193,0.0152,0.0046,0.0071,-0.0004,-0.0063,-0.0068,-0.01,-0.0132,-0.0142,-0.0135,-0.0134,-0.0133,-0.0133,-0.0132,0,0.0179,0.022,0.0258,0.0268,0.0301,0.0322,0.0343,0.0345,0.0365,0.0351,0.0358,0.0296,0.027,0.0173,0.0051,0.0049,-0.0072,-0.0093,-0.0175,-0.0178,-0.0167,-0.0167,-0.017,-0.017,-0.017,-0.0169,-0.0169,0,0.0206,0.0238,0.0277,0.0298,0.0354,0.0364,0.0416,0.042,0.0436,0.0469,0.0409,0.0407,0.0274,0.0188,0.0071,-0.0064,-0.0059,-0.0169,-0.0197,-0.0143,-0.014,-0.0171,-0.017,-0.0172,-0.0172,-0.0171,-0.0171,0,0.0221,0.0244,0.0295,0.0344,0.0367,0.0409,0.0476,0.051,0.0518,0.0556,0.0557,0.0488,0.0377,0.0234,0.0067,-0.0031,-0.0165,-0.0218,-0.0147,-0.017,-0.0255,-0.025,-0.0313,-0.0314,-0.0314,-0.0315,-0.0316,0,0.0231,0.0257,0.033,0.037,0.0396,0.0463,0.0511,0.0548,0.059,0.0605,0.0625,0.0535,0.047,0.024,0.0071,-0.0153,-0.0189,-0.0262,-0.0262,-0.0248,-0.0269,-0.0263,-0.0257,-0.0317,-0.0317,-0.0318,-0.0318,0,0.0247,0.0273,0.0316,0.0397,0.0461,0.0539,0.0613,0.0652,0.0698,0.0702,0.0691,0.0572,0.0443,0.025,0.0073,-0.009,-0.0215,-0.0272,-0.0272,-0.0272,-0.0254,-0.0273,-0.0267,-0.0321,-0.0321,-0.032,-0.032,0,0.026,0.0292,0.0351,0.0426,0.0508,0.0597,0.0637,0.0694,0.0739,0.0759,0.0747,0.0611,0.0527,0.0281,0.0118,-0.0044,-0.009,-0.0146,-0.0153,-0.0152,-0.0089,-0.0041,-0.0063,0,0,0,0,0,0.0271,0.0312,0.0377,0.047,0.055,0.0606,0.0696,0.0731,0.0777,0.0783,0.0773,0.0657,0.0422,0.0314,0.0152,0.0078,-0.0136,-0.0121,-0.0207,-0.0338,-0.0335,-0.029,0,0,0,0,0,0,0.0282,0.0339,0.0375,0.049,0.0559,0.0662,0.0726,0.0759,0.0766,0.078,0.0661,0.0607,0.0376,0.052,0.0148,0.0096,0.0016,-0.023,-0.0234,-0.034,-0.0337,-0.0334,-0.0287,0,0,0,0,0]}]]